Regional Weather Roundup
Issued by NWS Bismarck, ND

Home | Current Version | Previous Version | Text Only | Print | Product List | Glossary On
Versions: 1 2 3 4 5 6 7 8 9 10 11 12 13 14 15 16 17 18 19 20 21 22 23 24 25 26 27 28 29 30 31 32 33 34 35 36 37 38 39 40 41 42 43 44 45 46 47 48 49 50
000
ASUS43 KBIS 120220
RWRBIS

NWR BROADCAST TEXT
NATIONAL WEATHER SERVICE BISMARCK ND
900 PM CDT FRI JUL 11 2014

NOTE: "FAIR" INDICATES FEW OR NO CLOUDS BELOW 12,000 FEET WITH NO
SIGNIFICANT WEATHER AND/OR OBSTRUCTIONS TO VISIBILITY.


CITY           SKY/WX    TMP DP  RH WIND       PRES   REMARKS
WILLISTON      MOCLDY    75  49  39 N8        30.10R
MINOT          CLEAR     69  54  58 W8        30.06R
MINOT AFB      CLEAR     70  57  63 NW8       30.06R
BISMARCK       PTCLDY    77  57  50 N9        30.07R
DICKINSON      CLOUDY    71  58  63 NE3       30.11R
GARRISON         N/A     70  60  70 N5        30.08R
HETTINGER ARPT CLOUDY    70  61  73 NE8       30.11R
JAMESTOWN      CLEAR     73  57  57 NW8       30.03R
CARRINGTON     FAIR      68  59  73 NW9       30.06S
CROSBY         FAIR      66  55  68 N3        30.10R
HARVEY         FAIR      68  57  68 NW7       30.06R
HAZEN          FAIR      68  59  73 CALM      30.10R
LINTON         FAIR      73  59  60 NE5       30.05S
MANDAN         FAIR      72  57  60 N8        30.08S
RUGBY          FAIR      68  57  68 W7        30.04R
STANLEY          N/A     66  57  72 N5        30.10S
TIOGA          FAIR      64  59  82 N6        30.14R
WATFORD CITY   FAIR      70  55  60 N3        30.09R
$$

CITY           SKY/WX    TMP DP  RH WIND       PRES   REMARKS
GRAND FORKS    CLEAR     72  59  63 NW6       29.96R
GRAND FORKS AF CLEAR     73  58  58 NW8       29.99R
DEVILS LAKE    PTCLDY    72  55  56 W8        30.02R
FARGO          CLEAR     78  57  48 NW8       29.97R
CANDO          FAIR      68  57  68 NW6       30.03R
CAVALIER       FAIR      72  55  56 NW7       29.97R
GRAFTON        FAIR      72  57  60 W10       29.98R
GWINNER        CLEAR     77  61  57 N7        30.01S
LANGDON        FAIR      68  55  64 NW9       30.01R
ROLLA          FAIR      66  55  68 NW7       30.05R
WALHALLA         N/A     72  55  56 NW7         N/A
$$

CITY           SKY/WX    TMP DP  RH WIND       PRES   REMARKS
ABERDEEN       MOCLDY    77  62  59 N8        29.99R
MOBRIDGE       CLOUDY    75  63  66 N9        30.01R
BUFFALO          N/A     71  56  58 NE14      30.04S
RAPID CITY     CLOUDY    67  61  81 SW9       30.11R
GLASGOW        PTCLDY    73  54  51 NE5       30.10R
SIDNEY         CLOUDY    75  50  41 NE8       30.12S
WOLF POINT     PTCLDY    76  50  40 NE8       30.10R
GLENDIVE       PTCLDY    75  52  43 NE7       30.12R
MILES CITY     MOCLDY    76  53  44 NE17G23   30.08R
BAKER          CLOUDY    73  53  49 NE10      30.12S
$$

CITY           SKY/WX    TMP DP  RH WIND       PRES   REMARKS
BILLINGS       MOCLDY    78  52  40 NE13      30.08S
GREAT FALLS    SUNNY     74  53  48 NE7       30.12R
REGINA         PTCLDY    66  55  68 NW7       30.08R
ESTEVAN        CLEAR     66  55  68 NW6       30.09R
$$




USA.gov is the U.S. government's official web portal to all federal, state and local government web resources and services.